Flag Weather past 2 weeks in Neuburg an der Donau, Bavaria, Germany

Now
36 °F

Chilly.


Feels Like: 33 °F
Forecast: 35 / 41 °F
Wind: 3 mph from Northeast

Location: Neuburg / Donau

Current Time: Nov 28, 2014 at 12:41:15 AM

Latest Report: Nov 27, 2014 at 11:20 PM


Visibility: N/A

Pressure: 29.86 "Hg

Humidity: 93%

Dew point: 34 °F

Location of Neuburg an der DonauLocation

Historic Weather in Neuburg an der Donau — Graph

°F

Neuburg an der Donau temperature yesterday

Maximum temperature yesterday: 43 °F (at 2:20 PM)
Minimum temperature yesterday: 34 °F (at 9:20 PM)
Average temperature yesterday: 38 °F

Past Weeks' High & Low Weather Summary

 TemperatureHumidityPressure
High50 °F (Nov 16, 12:20 PM)100% (Nov 12, 11:20 PM)30.30 "Hg (Nov 12, 11:20 PM)
Low30 °F (Nov 17, 4:20 AM)71% (Nov 20, 1:20 PM)29.47 "Hg (Nov 16, 1:20 AM)
Average42 °F92%29.98 "Hg
* Reported Nov 12 11:20 PM — Nov 27 11:20 PM, Neuburg an der Donau, Weather by CustomWeather, © 2014

Note: Actual official high and low records may vary slightly from our data, if they occured in-between our weather recording intervals... More about our weather records

Advertising

Neuburg an der Donau weather history for previous 24 hours

 ConditionsComfort  
Time TempWeatherWind HumidityBarometerVisibility
11:20 PM
Nov 27
36 °FChilly.3 mph93%29.86 "HgN/A
10:20 PM34 °FChilly.3 mph93%29.86 "HgN/A
9:20 PM34 °FChilly.3 mph100%29.86 "HgN/A
8:20 PM36 °FChilly.2 mph93%29.83 "HgN/A
7:20 PM36 °FChilly.5 mph93%29.83 "HgN/A
6:20 PM37 °FChilly.5 mph87%29.83 "HgN/A
5:20 PM39 °FPartly cloudy.3 mph81%29.83 "HgN/A
4:20 PM41 °FBroken clouds.3 mph81%29.83 "HgN/A
3:20 PM41 °FBroken clouds.5 mph81%29.80 "HgN/A
2:20 PM43 °FBroken clouds.7 mph76%29.80 "HgN/A
1:20 PM41 °FBroken clouds.6 mph81%29.80 "HgN/A
12:20 PM41 °FPartly sunny.6 mph76%29.83 "HgN/A
11:20 AM39 °FPartly sunny.6 mph81%29.86 "HgN/A
10:20 AM37 °FPartly sunny.6 mph87%29.86 "Hg5 mi
9:20 AM37 °FLow clouds.5 mph87%29.86 "Hg4 mi
8:20 AM37 °FFog.5 mph87%29.86 "Hg3 mi
7:20 AM37 °FFog.5 mph87%29.86 "Hg3 mi
6:20 AM37 °FLow clouds.5 mph87%29.86 "Hg4 mi
5:20 AM37 °FChilly.5 mph87%29.89 "HgN/A
4:20 AM37 °FChilly.3 mph87%29.89 "HgN/A
3:20 AM37 °FChilly.3 mph87%29.92 "HgN/A
2:20 AM37 °FChilly.5 mph87%29.92 "HgN/A
1:20 AM37 °FChilly.5 mph87%29.95 "HgN/A
12:20 AM37 °FChilly.5 mph87%29.95 "HgN/A
Weather by CustomWeather, © 2014

See weather overviewHow to use our weather pages